Location: Szczecin
(53.4381°N, 14.5422°E)
Time: 02:49:33
(UTC+02:00)

ISS - Visible Passes

Search period start: 23 September 2018 00:00
Search period end: 03 October 2018 00:00
Orbit: 403 x 408 km, 51.6° (Epoch: 23 September)

Date Brightness Start Highest point End Pass type
(mag) Time Alt. Az. Time Alt. Az. Time Alt. Az.
23 Sep -1.5 21:11:29 10° SW 21:12:21 16° SSW 21:12:21 16° SSW visible
24 Sep -2.4 20:20:05 10° SSW 20:22:41 22° SSE 20:22:54 21° SE visible
24 Sep -0.7 21:55:32 10° WSW 21:55:36 10° WSW 21:55:36 10° WSW visible
25 Sep -1.8 19:29:01 10° S 19:31:01 15° SE 19:33:00 10° ESE visible
25 Sep -2.7 21:03:47 10° SW 21:05:59 33° SSW 21:05:59 33° SSW visible
26 Sep -3.0 20:12:07 10° SW 20:15:08 34° SSE 20:16:15 26° ESE visible
26 Sep -1.2 21:48:06 10° WSW 21:48:56 16° WSW 21:48:56 16° WSW visible
27 Sep -2.4 19:20:36 10° SSW 19:23:22 25° SSE 19:26:07 10° E visible
27 Sep -3.4 20:56:15 10° WSW 20:59:06 52° SSW 20:59:06 52° SSW visible
28 Sep -3.4 20:04:25 10° WSW 20:07:37 48° SSE 20:09:12 25° ESE visible
28 Sep -1.4 21:40:41 10° W 21:41:52 20° W 21:41:52 20° W visible
29 Sep -3.0 19:12:40 10° SW 19:15:46 37° SSE 19:18:52 10° E visible
29 Sep -3.7 20:48:45 10° W 20:51:54 63° SSW 20:51:54 63° SSW visible
30 Sep -3.7 19:56:51 10° WSW 20:00:07 61° S 20:01:54 24° E visible
30 Sep -1.5 21:33:13 10° W 21:34:34 22° W 21:34:34 22° W visible
01 Oct -3.7 20:41:16 10° W 20:44:32 61° S 20:44:33 61° S visible
02 Oct -3.7 19:49:18 10° W 19:52:35 65° S 19:54:30 22° ESE visible
02 Oct -1.5 21:25:45 10° W 21:27:09 21° WSW 21:27:09 21° WSW visible
